Location: Az?znagar
(16.8373°N, 80.5091°E)
Time: 09:01:19
(UTC+00:00)

deb Chang Zheng 4 - Pass Details

Date: 27 September 2022
Orbit: 879 x 975 km, 98.9° (Epoch: 01 December)

Event Time Altitude Azimuth Distance (km) Brightness Sun altitude
Exits shadow 15:20:04 16° 235° (SW) 2,189 ? -41.2°
Maximum altitude 15:22:05 19° 261° (W) 2,016 ? -41.7°
Drops below altitude 10° 15:26:01 10° 304° (NW) 2,568 ? -42.6°
Sets 15:29:08 0° 322° (NW) 3,495 ? -43.3°
